Tracking 35275 objects as of 9-Sep-2026
HD Live streaming from Space Station
objects crossing your sky now

STARLINK-34124

Track STARLINK-34124 now!
10-day predictions
STARLINK-34124 is classified as:


NORAD ID: 64109
Int'l Code: 2025-110P
Launch date: May 23, 2025
Source: United States (US)
Launch site: AIR FORCE WESTERN TEST RANGE (AFWTR)
Your satellite tracking list
Your tracking list is empty




NASA's NSSDC Master Catalog

Two Line Element Set (TLE):
1 64109U 25110P   26251.31720868  .00016341  00000-0  53680-3 0  9990
2 64109  53.1539 257.0530 0001039  73.9502 286.1613 15.31722905 73865
Source of the keplerian elements: AFSPC